Flag for Switzerland Weather past 2 weeks in Lugano, Switzerland

Now
81 °F

Sunny.


Feels Like: 82 °F
Forecast: 67 / 92 °F
Wind: 3 mph from North

Location: Lugano Airport

Current Time: Jul 4, 2015 at 11:30:25 AM

Latest Report: Jul 4, 2015 at 10:50 AM


Visibility: 10 mi

Pressure: 30.24 "Hg

Humidity: 54%

Dew point: 63 °F

Location of LuganoLocation

Historic Weather in Lugano — Graph

°F

Lugano temperature yesterday

Maximum temperature yesterday: 90 °F (at 1:50 PM)
Minimum temperature yesterday: 70 °F (at 4:50 AM)
Average temperature yesterday: 80 °F

Past Weeks' High & Low Weather Summary

 TemperatureHumidityPressure
High90 °F (Jul 2, 3:20 PM)100% (Jun 23, 5:20 AM)30.39 "Hg (Jun 23, 5:20 AM)
Low55 °F (Jun 20, 6:20 AM)24% (Jun 19, 5:50 PM)29.74 "Hg (Jun 23, 12:20 PM)
Average73 °F63%30.07 "Hg
* Reported Jun 19 10:20 AM — Jul 4 10:20 AM, Lugano, Weather by CustomWeather, © 2015

Note: Actual official high and low records may vary slightly from our data, if they occured in-between our weather recording intervals... More about our weather records

Advertising

Lugano weather history for previous 24 hours

 ConditionsComfort  
Time TempWeatherWind HumidityBarometerVisibility
10:20 AM
Sat, Jul 4
79 °FSunny.1 mph65%30.24 "Hg10 mi
9:50 AM77 °FSunny.2 mph65%30.24 "Hg10 mi
9:20 AM77 °FSunny.2 mph65%30.27 "Hg10 mi
8:50 AM75 °FSunny.2 mph74%30.27 "Hg10 mi
8:20 AM73 °FSunny.1 mph78%30.27 "Hg10 mi
7:50 AM70 °FSunny.2 mph83%30.27 "Hg10 mi
7:20 AM70 °FSunny.3 mph83%30.27 "Hg10 mi
6:50 AM68 °FSunny.2 mph88%30.27 "Hg10 mi
6:20 AM68 °FClear.3 mph88%30.27 "Hg10 mi
5:50 AM68 °FClear.1 mph88%30.27 "Hg10 mi
5:20 AM68 °FClear.2 mph94%30.27 "Hg10 mi
4:50 AM68 °FPassing clouds.5 mph94%30.27 "HgN/A
4:20 AM70 °FPassing clouds.5 mph88%30.27 "HgN/A
3:50 AM70 °FPassing clouds.5 mph88%30.27 "HgN/A
3:20 AM70 °FClear.2 mph94%30.27 "Hg10 mi
2:50 AM72 °FClear.2 mph88%30.27 "Hg10 mi
2:20 AM72 °FClear.3 mph83%30.27 "Hg10 mi
1:50 AM73 °FClear.3 mph78%30.30 "Hg10 mi
1:20 AM72 °FMild.3 mph88%30.33 "HgN/A
12:50 AM73 °FPassing clouds.2 mph83%30.33 "HgN/A
12:20 AM73 °FClear.2 mph83%30.36 "HgN/A
11:50 PM
Fri, Jul 3
75 °FPassing clouds.5 mph69%30.39 "HgN/A
11:20 PM73 °FSprinkles. Passing clouds.5 mph78%30.36 "HgN/A
10:50 PM75 °FSprinkles. Passing clouds.10 mph69%30.39 "HgN/A
10:20 PM77 °FThundershowers. Overcast.7 mph69%30.36 "HgN/A
9:50 PM77 °FThunderstorms. Scattered clouds.6 mph83%30.33 "Hg5 mi
9:20 PM79 °FThunderstorms. Scattered clouds.7 mph70%30.30 "Hg5 mi
8:50 PM82 °FThunderstorms. Scattered clouds.2 mph66%30.30 "Hg5 mi
8:20 PM84 °FThundershowers. Broken clouds.3 mph58%30.27 "Hg5 mi
7:50 PM86 °FThundershowers. Broken clouds.9 mph55%30.27 "Hg5 mi
7:20 PM88 °FBroken clouds.10 mph52%30.27 "Hg6 mi
6:50 PM88 °FBroken clouds.5 mph59%30.24 "Hg6 mi
6:20 PM88 °FBroken clouds.6 mph59%30.24 "Hg6 mi
5:50 PM90 °FPartly sunny.5 mph52%30.24 "Hg6 mi
5:20 PM90 °FScattered clouds.6 mph52%30.21 "Hg6 mi
4:50 PM90 °FScattered clouds.7 mph52%30.21 "Hg6 mi
4:20 PM90 °FScattered clouds.7 mph52%30.21 "Hg6 mi
3:50 PM88 °FScattered clouds.7 mph62%30.21 "Hg6 mi
3:20 PM90 °FPassing clouds.9 mph55%30.21 "Hg6 mi
2:50 PM90 °FPassing clouds.9 mph55%30.24 "Hg6 mi
2:20 PM90 °FPassing clouds.9 mph55%30.24 "Hg6 mi
1:50 PM90 °FSunny.9 mph55%30.24 "Hg10 mi
1:20 PM88 °FPassing clouds.8 mph59%30.24 "HgN/A
12:50 PM88 °FSunny.7 mph62%30.24 "Hg10 mi
12:20 PM86 °FSunny.6 mph62%30.24 "Hg10 mi
11:50 AM86 °FSunny.5 mph62%30.24 "Hg10 mi
11:20 AM84 °FPassing clouds.5 mph62%30.24 "HgN/A
Weather by CustomWeather, © 2015

See weather overviewHow to use our weather pages